Regional Weather Roundup
Issued by NWS

Home | Current Version | Previous Version | Text Only | Print | Product List | Glossary Off
Versions: 1 2 3 4 5 6 7 8 9 10 11 12 13 14 15 16 17 18 19 20 21 22 23 24 25 26 27 28 29 30 31 32 33 34 35 36 37 38 39 40 41 42 43 44 45 46 47 48 49 50

000
ASUS43 KIND 220159
RWRIN

WEATHER ROUNDUP FOR INDIANA
NATIONAL WEATHER SERVICE INDIANAPOLIS IN
1000 PM EDT MON AUG 21 2017

NOTE: "FAIR" INDICATES FEW OR NO CLOUDS BELOW 12,000 FEET WITH NO
SIGNIFICANT WEATHER AND/OR OBSTRUCTIONS TO VISIBILITY.

* - STATION DOES NOT REPORT WEATHER SUCH AS PRECIPITATION OR FOG.

+ - STATION NOT QUALITY CONTROLLED BY THE NATIONAL WEATHER SERVICE.
    USE DATA WITH CAUTION...ESPECIALLY DEWPOINT AND RELATIVE
    HUMIDITY OBSERVATIONS.

INZ001>003-010>013-019-020-220300-
NORTHWEST INDIANA

CITY           SKY/WX    TMP DP  RH WIND       PRES   REMARKS
GARY /AIRPORT/ PTCLDY    79  72  78 SW5       29.97F
MICHIGAN CITY+ PTCLDY    73  72  94 CALM      29.99F
MONTICELLO +   CLOUDY    76  74  96 S5        30.01F

$$

LMZ046-743>745-220300-
SOUTHERN LAKE MICHIGAN

STATION/POSITION TIME  TEMP    WIND        PRES    WAVE
                       AIR SEA DIR/SP/G            HT
                 (UTC) (F)     (DEG/KT/KT) (MB)    (FT)
BURNS HARBOR     0140   79     190/  8/ 10 1015.2F
MICHIGAN CITY    0130   79     180/  8/  9   N/A
5NW MICH CITY    0150   77 75  190/  6/  8   N/A     1

$$

INZ004-005-014>016-021>024-220300-
NORTH CENTRAL INDIANA

CITY           SKY/WX    TMP DP  RH WIND       PRES   REMARKS
GOSHEN         PTCLDY    76  70  82 S7        30.01S
PERU/GRISSOM   CLOUDY    75  70  86 SW7       30.04S
SOUTH BEND     PTCLDY    77  73  87 S5        30.00F

$$

INZ006>009-017-018-025>027-220300-
NORTHEAST INDIANA

CITY           SKY/WX    TMP DP  RH WIND       PRES   REMARKS
FORT WAYNE     MOCLDY    74  68  81 SW8       30.04S

$$

INZ028-029-035-036-043>045-051>053-220300-
WEST CENTRAL INDIANA

CITY           SKY/WX    TMP DP  RH WIND       PRES   REMARKS
LAFAYETTE      CLEAR     75  71  87 S6        30.02F
TERRE HAUTE    PTCLDY    72  69  90 SE5       30.05F

$$

INZ030>032-037>040-046>048-054>057-064-065-220300-
CENTRAL INDIANA

CITY           SKY/WX    TMP DP  RH WIND       PRES   REMARKS
COLUMBUS       CLEAR     75  72  88 CALM      30.08R
GREENWOOD *+   CLOUDY    75  71  89 S5        30.07F
INDIANAPOLIS   CLOUDY    75  72  90 S7        30.05F
-EAGLE CREEK   CLOUDY    76  70  82 MISG      30.05F
KOKOMO +       PTCLDY    74  70  87 SW7       30.05F
MT COMFORT *+  CLOUDY    73  70  88 S3        30.07F
SHELBYVILLE    PTCLDY    73  69  87 SE7       30.07S

$$

INZ033-034-041-042-049-050-058-059-220300-
EAST CENTRAL INDIANA

CITY           SKY/WX    TMP DP  RH WIND       PRES   REMARKS
MUNCIE         CLOUDY    77  69  76 SW6       30.07S
RICHMOND +     CLOUDY    70  70 100 SW3       30.11R FOG

$$

INZ060-061-067>069-081>083-085>088-220300-
SOUTHWEST INDIANA

CITY           SKY/WX    TMP DP  RH WIND       PRES   REMARKS
EVANSVILLE     LGT RAIN  74  70  87 SW10      30.11S
HUNTINGBURG +  CLOUDY    75  71  87 SW5       30.09R

$$

INZ062-063-066-070>080-084-089>092-220300-
SOUTH CENTRAL AND SOUTHEAST INDIANA

CITY           SKY/WX    TMP DP  RH WIND       PRES   REMARKS
BLOOMINGTON    CLOUDY    75  70  84 CALM      30.08S
MADISON *+     CLOUDY    77  72  83 CALM      30.11R
SEYMOUR +      CLOUDY    77  72  83 CALM      30.07S

$$




USA.gov is the U.S. government's official web portal to all federal, state and local government web resources and services.